Panagia — V2OQ5 — position and weather

sailwx.info

Track history (hours):
 
Tides and Currents Weather Stations Pressure Air Temp Water Temp Dewpoint Dewpoint Depression Visibility Wind Speed Wind Dir Waves Ship Positions

Panagia

Last reported at 2014-Sep-06 18:15 UTC. Time now 2014-Sep-17 13:39 UTC.
Position N 50°15' W 001°21'.
Warning: this ship's position is 10 days out of date.

Length 120 m; draft 7.4 m.

Type: Ship. MMSI: 304610000.

Date/timePositionNaut miles runAvg speedWind from/ knotsBaromVisibWave heightAir tempDewpointWater temp
2014-Sep-06 18:15N 50°15' W 001°21'2910.6
2014-Sep-06 15:34N 50°22' W 000°38'1312.8
2014-Sep-06 14:33N 50°26' W 000°19'1413.7
2014-Sep-06 13:32N 50°30' E 000°02'1514.1
2014-Sep-06 12:29N 50°33' E 000°25'1213.6
2014-Sep-06 11:34N 50°38' E 000°43'1313.0
2014-Sep-06 10:33N 50°45' E 001°00'2311.3
2014-Sep-06 08:33N 51°01' E 001°27'1212.0
2014-Sep-06 07:33N 51°09' E 001°40'1313.5
2014-Sep-06 06:33N 51°20' E 001°53'1414.5
2014-Sep-06 05:34N 51°32' E 002°05'1514.7
2014-Sep-06 04:31N 51°44' E 002°21'4113.5
2014-Sep-06 01:29N 52°14' E 003°05'6412.4
2014-Sep-05 20:20N 53°03' E 004°12'3813.4
2014-Sep-05 17:33N 53°37' E 004°40'1512.9
2014-Sep-05 16:25N 53°51' E 004°48'6512.8
2014-Sep-05 11:20N 54°50' E 005°34'1012.9
2014-Sep-05 10:33N 54°59' E 005°41'20510.8
2014-Sep-04 15:32N 58°09' E 008°02'9 0.9
2014-Sep-04 06:05N 58°02' E 008°10'25911.8
2014-Sep-03 08:04N 54°06' E 004°56'612.2
2014-Sep-03 07:34N 53°60' E 004°54'1312.3
2014-Sep-03 06:31N 53°47' E 004°52'1212.6
2014-Sep-03 05:33N 53°35' E 004°48'1212.2
2014-Sep-03 04:33N 53°24' E 004°40'1212.1
2014-Sep-03 03:33N 53°13' E 004°32'1212.2
2014-Sep-03 02:33N 53°02' E 004°22'1212.0
2014-Sep-03 01:33N 52°51' E 004°14'1212.0
2014-Sep-03 00:32N 52°41' E 004°03'1212.0
2014-Sep-02 23:34N 52°31' E 003°54'1312.6
2014-Sep-02 22:33N 52°18' E 003°52'1313.5
2014-Sep-02 21:33N 52°05' E 003°54'9 9.1
2014-Sep-02 20:34N 51°58' E 004°04'0 0.4
2014-Sep-02 19:29N 51°58' E 004°03'0 0.0
2014-Sep-02 18:08N 51°58' E 004°03'0 0.0
2014-Sep-02 17:32N 51°58' E 004°03'0 0.0
2014-Sep-02 16:32N 51°58' E 004°03'0 0.0
2014-Sep-02 14:07N 51°58' E 004°03'0 0.0
2014-Sep-02 13:29N 51°58' E 004°03'0 0.0
2014-Sep-02 12:29N 51°58' E 004°03'0 0.0
2014-Sep-02 11:32N 51°58' E 004°03'0 0.0
2014-Sep-02 10:14N 51°58' E 004°03'0 0.0
2014-Sep-02 09:25N 51°58' E 004°03'0 0.0
2014-Sep-02 08:25N 51°58' E 004°03'0 0.0
2014-Sep-02 07:25N 51°58' E 004°03'0 0.0
2014-Sep-02 06:31N 51°58' E 004°03'0 0.0
2014-Sep-02 05:27N 51°58' E 004°03'0 0.0
2014-Sep-02 04:33N 51°58' E 004°03'0 0.0
2014-Sep-02 03:32N 51°58' E 004°03'0 0.0
2014-Sep-02 02:31N 51°58' E 004°03'0 0.0
2014-Sep-02 01:32N 51°58' E 004°03'0 0.0
2014-Sep-02 00:32N 51°58' E 004°03'0 0.0
2014-Sep-01 23:31N 51°58' E 004°03'0 0.0
2014-Sep-01 22:25N 51°58' E 004°03'0 0.0
2014-Sep-01 19:08N 51°58' E 004°03'0 0.0
2014-Sep-01 15:33N 51°58' E 004°03'2 2.2
2014-Sep-01 14:33N 51°60' E 004°01'11 9.9
2014-Sep-01 13:28N 51°57' E 003°44'0 0.1
2014-Sep-01 12:10N 51°57' E 003°44'0 0.0
2014-Sep-01 11:32N 51°57' E 003°44'0 0.1
2014-Sep-01 10:04N 51°57' E 003°44'0 0.1
2014-Sep-01 08:33N 51°57' E 003°44'0 0.0
2014-Sep-01 02:22N 51°57' E 003°44'0 0.0
2014-Sep-01 01:29N 51°57' E 003°44'0 0.0
2014-Aug-31 23:03N 51°57' E 003°44'0 0.0
2014-Aug-31 22:27N 51°57' E 003°44'0 0.1
2014-Aug-31 21:04N 51°57' E 003°44'0 0.0
2014-Aug-31 18:06N 51°57' E 003°44'1 2.0
2014-Aug-31 17:31N 51°58' E 003°44'5012.4
2014-Aug-31 13:30N 51°40' E 002°29'1212.8
2014-Aug-31 12:33N 51°31' E 002°16'1211.5
2014-Aug-31 11:30N 51°20' E 002°08'1110.9
2014-Aug-31 10:33N 51°12' E 001°58'1111.0
2014-Aug-31 09:33N 51°05' E 001°44'1111.0
2014-Aug-31 08:33N 50°57' E 001°32'3912.0
2014-Aug-31 05:17N 50°29' E 000°50'1013.1
2014-Aug-31 04:33N 50°26' E 000°35'27312.4
2014-Aug-30 06:33N 48°08' W 005°26'1312.9
2014-Aug-30 05:31N 47°57' W 005°15'2813.4
2014-Aug-30 03:28N 47°34' W 004°52'1313.4
2014-Aug-30 02:29N 47°23' W 004°41'270 7.7
2014-Aug-28 15:12N 43°19' W 001°55'  
Track history (hours):
 
Tides and Currents Weather Stations Pressure Air Temp Water Temp Dewpoint Dewpoint Depression Visibility Wind Speed Wind Dir Waves Ship Positions

Panagia

Last reported at 2014-Sep-06 18:15 UTC. Time now 2014-Sep-17 13:40 UTC.
Position N 50°15' W 001°21'.
Warning: this ship's position is 10 days out of date.

Length 120 m; draft 7.4 m.

Type: Ship. MMSI: 304610000.

Date/timePositionNaut miles runAvg speedWind from/ knotsBaromVisibWave heightAir tempDewpointWater temp
2014-Sep-06 18:15N 50°15' W 001°21'2910.6
2014-Sep-06 15:34N 50°22' W 000°38'1312.8
2014-Sep-06 14:33N 50°26' W 000°19'1413.7
2014-Sep-06 13:32N 50°30' E 000°02'1514.1
2014-Sep-06 12:29N 50°33' E 000°25'1213.6
2014-Sep-06 11:34N 50°38' E 000°43'1313.0
2014-Sep-06 10:33N 50°45' E 001°00'2311.3
2014-Sep-06 08:33N 51°01' E 001°27'1212.0
2014-Sep-06 07:33N 51°09' E 001°40'1313.5
2014-Sep-06 06:33N 51°20' E 001°53'1414.5
2014-Sep-06 05:34N 51°32' E 002°05'1514.7
2014-Sep-06 04:31N 51°44' E 002°21'4113.5
2014-Sep-06 01:29N 52°14' E 003°05'6412.4
2014-Sep-05 20:20N 53°03' E 004°12'3813.4
2014-Sep-05 17:33N 53°37' E 004°40'1512.9
2014-Sep-05 16:25N 53°51' E 004°48'6512.8
2014-Sep-05 11:20N 54°50' E 005°34'1012.9
2014-Sep-05 10:33N 54°59' E 005°41'20510.8
2014-Sep-04 15:32N 58°09' E 008°02'9 0.9
2014-Sep-04 06:05N 58°02' E 008°10'25911.8
2014-Sep-03 08:04N 54°06' E 004°56'612.2
2014-Sep-03 07:34N 53°60' E 004°54'1312.3
2014-Sep-03 06:31N 53°47' E 004°52'1212.6
2014-Sep-03 05:33N 53°35' E 004°48'1212.2
2014-Sep-03 04:33N 53°24' E 004°40'1212.1
2014-Sep-03 03:33N 53°13' E 004°32'1212.2
2014-Sep-03 02:33N 53°02' E 004°22'1212.0
2014-Sep-03 01:33N 52°51' E 004°14'1212.0
2014-Sep-03 00:32N 52°41' E 004°03'1212.0
2014-Sep-02 23:34N 52°31' E 003°54'1312.6
2014-Sep-02 22:33N 52°18' E 003°52'1313.5
2014-Sep-02 21:33N 52°05' E 003°54'9 9.1
2014-Sep-02 20:34N 51°58' E 004°04'0 0.4
2014-Sep-02 19:29N 51°58' E 004°03'0 0.0
2014-Sep-02 18:08N 51°58' E 004°03'0 0.0
2014-Sep-02 17:32N 51°58' E 004°03'0 0.0
2014-Sep-02 16:32N 51°58' E 004°03'0 0.0
2014-Sep-02 14:07N 51°58' E 004°03'0 0.0
2014-Sep-02 13:29N 51°58' E 004°03'0 0.0
2014-Sep-02 12:29N 51°58' E 004°03'0 0.0
2014-Sep-02 11:32N 51°58' E 004°03'0 0.0
2014-Sep-02 10:14N 51°58' E 004°03'0 0.0
2014-Sep-02 09:25N 51°58' E 004°03'0 0.0
2014-Sep-02 08:25N 51°58' E 004°03'0 0.0
2014-Sep-02 07:25N 51°58' E 004°03'0 0.0
2014-Sep-02 06:31N 51°58' E 004°03'0 0.0
2014-Sep-02 05:27N 51°58' E 004°03'0 0.0
2014-Sep-02 04:33N 51°58' E 004°03'0 0.0
2014-Sep-02 03:32N 51°58' E 004°03'0 0.0
2014-Sep-02 02:31N 51°58' E 004°03'0 0.0
2014-Sep-02 01:32N 51°58' E 004°03'0 0.0
2014-Sep-02 00:32N 51°58' E 004°03'0 0.0
2014-Sep-01 23:31N 51°58' E 004°03'0 0.0
2014-Sep-01 22:25N 51°58' E 004°03'0 0.0
2014-Sep-01 19:08N 51°58' E 004°03'0 0.0
2014-Sep-01 15:33N 51°58' E 004°03'2 2.2
2014-Sep-01 14:33N 51°60' E 004°01'11 9.9
2014-Sep-01 13:28N 51°57' E 003°44'0 0.1
2014-Sep-01 12:10N 51°57' E 003°44'0 0.0
2014-Sep-01 11:32N 51°57' E 003°44'0 0.1
2014-Sep-01 10:04N 51°57' E 003°44'0 0.1
2014-Sep-01 08:33N 51°57' E 003°44'0 0.0
2014-Sep-01 02:22N 51°57' E 003°44'0 0.0
2014-Sep-01 01:29N 51°57' E 003°44'0 0.0
2014-Aug-31 23:03N 51°57' E 003°44'0 0.0
2014-Aug-31 22:27N 51°57' E 003°44'0 0.1
2014-Aug-31 21:04N 51°57' E 003°44'0 0.0
2014-Aug-31 18:06N 51°57' E 003°44'1 2.0
2014-Aug-31 17:31N 51°58' E 003°44'5012.4
2014-Aug-31 13:30N 51°40' E 002°29'1212.8
2014-Aug-31 12:33N 51°31' E 002°16'1211.5
2014-Aug-31 11:30N 51°20' E 002°08'1110.9
2014-Aug-31 10:33N 51°12' E 001°58'1111.0
2014-Aug-31 09:33N 51°05' E 001°44'1111.0
2014-Aug-31 08:33N 50°57' E 001°32'3912.0
2014-Aug-31 05:17N 50°29' E 000°50'1013.1
2014-Aug-31 04:33N 50°26' E 000°35'27312.4
2014-Aug-30 06:33N 48°08' W 005°26'1312.9
2014-Aug-30 05:31N 47°57' W 005°15'2813.4
2014-Aug-30 03:28N 47°34' W 004°52'1313.4
2014-Aug-30 02:29N 47°23' W 004°41'270 7.7
2014-Aug-28 15:12N 43°19' W 001°55'  

Dump ship's entire track history